Printer-friendly version

IAU Minor Planet Center

Minor Planet Center

MPEC 2001-M50: COMET C/2000 WM1 (LINEAR)

The following Minor Planet Electronic Circular may be linked-to from your own Web pages, but must not otherwise be redistributed electronically.


Read MPEC 2001-M49 Read MPEC 2001-M51


M.P.E.C. 2001-M50                                Issued 2001 June 28, 17:10 UT

     The Minor Planet Electronic Circulars contain information on unusual
         minor planets and routine data on comets.  They are published
   on behalf of Commission 20 of the International Astronomical Union by the
          Minor Planet Center, Smithsonian Astrophysical Observatory,
                          Cambridge, MA 02138, U.S.A.

             Prepared using the Tamkin Foundation Computer Network

                              MPC@CFA.HARVARD.EDU
          URL http://cfa-www.harvard.edu/iau/mpc.html  ISSN 1523-6714

                           COMET C/2000 WM1 (LINEAR)

Observations:
    CK00W01M  C2001 06 02.74057 02 35 55.71 +45 36 02.1                      897
    CK00W01M  C2001 06 02.74688 02 35 56.34 +45 36 02.9                      897
    CK00W01M  C2001 06 02.75201 02 35 56.55 +45 36 05.2          15.7 T      897
    CK00W01M  C2001 06 02.75600 02 35 56.73 +45 36 02.7                      349
    CK00W01M  C2001 06 02.75880 02 35 56.89 +45 36 03.1          16.3 T      349
    CK00W01M  C2001 06 16.12742 02 54 06.82 +46 13 37.0          16.1 T      170
    CK00W01M  C2001 06 22.05839 03 02 13.91 +46 31 12.5          16.0 T      170
    CK00W01M  C2001 06 22.06469 03 02 14.74 +46 31 13.4          16.0 T      170
    CK00W01M  C2001 06 22.06716 03 02 14.86 +46 31 14.2          16.1 T      170
    CK00W01M  C2001 06 22.06949 03 02 15.10 +46 31 17.4          16.4 N      620
    CK00W01M  C2001 06 22.07979 03 02 15.88 +46 31 17.2          16.0 T      170
    CK00W01M  C2001 06 22.08234 03 02 16.13 +46 31 17.4          16.1 T      170
    CK00W01M  C2001 06 22.08484 03 02 16.28 +46 31 17.9          16.0 T      170
    CK00W01M  C2001 06 22.08721 03 02 16.66 +46 31 18.9                      620
    CK00W01M  C2001 06 22.08976 03 02 16.68 +46 31 19.0          16.0 T      170
    CK00W01M  C2001 06 22.10000 03 02 17.68 +46 31 22.2                      620
    CK00W01M  C2001 06 23.07839 03 03 38.12 +46 34 15.5          16.5 T      165
    CK00W01M  C2001 06 23.07976 03 03 38.22 +46 34 16.4                      165
    CK00W01M  C2001 06 23.08466 03 03 38.56 +46 34 18.9                      165
    CK00W01M  C2001 06 23.08803 03 03 38.81 +46 34 19.9                      165
    CK00W01M  C2001 06 24.12682 03 05 04.47 +46 37 28.4          15.9 T      170
    CK00W01M  C2001 06 24.13063 03 05 04.74 +46 37 29.3          16.0 T      170

Observer details:
165 Piera Observatory, Barcelona.  Observer J. Guarro.  0.40-m f/2 Schmidt
    + CCD.
170 Observatorio de Beques.  Observer J. Manteca.  0.26-m Schmidt-Cassegrain
    + CCD.
349 Ageo.  Observer K. Kadota.  0.18-m f/5.5 reflector + CCD.
620 Observatorio Astronomico de Mallorca.  Observers A. Garcia, S. Sanchez.
    0.40-m f/2.0 Schmidt + CCD.
897 Chiyoda.  Observer T. Kojima.  0.25-m f/6.0 reflector + CCD.

Orbital elements:
    C/2000 WM1 (LINEAR)
Epoch 2002 Jan. 6.0 TT = JDT 2452280.5
T 2002 Jan. 22.67929 TT                                 Marsden
q   0.5553991            (2000.0)            P               Q
z  -0.0005100      Peri.  276.76858     -0.31490398     -0.49779484
 +/-0.0000103      Node   237.89721     +0.43042913     -0.83373650
e   1.0002832      Incl.   72.54874     -0.84591149     -0.23892204
Residuals in seconds of arc
001116 704  0.2+  0.3+    001222 402  0.4+  1.0-    010217 620  0.3-  0.4-
001116 704  0.6+  0.1+    001222 402  0.3+  0.1+    010217 620  0.1-  0.1+
001116 704  0.7+  0.0     001222 341  0.2+  0.2+    010217 620  0.0   0.6+
001116 704  0.2-  1.3-    001222 402  1.1+  0.1-    010218 201  0.5-  0.2+
001116 704  0.3+  0.5+    001222 360  0.2-  0.0     010218 201  1.4-  0.9-
001116 704  1.1-  0.7-    001222 360  0.0   0.2+    010218 201  0.4+  0.3+
001116 704  0.5-  0.1+    001223 704  0.1+  0.3-    010219 360  0.5-  0.4-
001116 704  1.2-  1.0-    001223 704  0.3-  0.1-    010219 360  0.2-  0.2-
001116 704  0.9-  0.4-    001223 704  0.3+  0.2-    010220 620  0.0   0.3+
001118 704  0.4+  0.4+    001223 704  0.1+  0.1-    010220 620  0.1-  0.1-
001118 704  0.2-  0.4+    001223 349  1.4-  1.6+    010220 620  0.5-  0.0
001118 704  0.2-  0.5+    001223 349  1.2-  0.2-    010220 620  0.4-  0.0
001216 704  1.7+  0.3+    001223 349  1.5-  0.0     010225 349  1.2+  0.4+
001216 704  1.8+  0.5+    001226 372  0.6+  1.1+    010225 349  0.1-  0.5+
001216 704  1.6+  0.1+    001227 897  0.3+  0.2-    010225 349  1.0+  0.5+
001217 704  0.0   0.1+    001227 897  0.2+  1.2-    010225 349  0.1+  0.7+
001217 854  0.6+  0.0     001227 897  0.7-  0.1+    010227 461  1.7-  0.1-
001217 704  0.5-  0.1-    001227 170  1.4+  1.8-    010227 461  0.3-  0.2-
001217 704  0.3-  0.0     001229 372  0.3+  0.9+    010227 461  0.1+  0.8-
001217 704  0.1-  0.1+    001229 360  0.2-  0.1+    010313 620  0.9+  0.1-
001217 854  1.3-  0.1-    001229 360  0.1-  0.1+    010313 620  1.0+  0.5-
001217 704  0.5-  0.6+    001229 372  0.8+  0.5-    010313 620  1.0+  0.7-
001217 704  0.4-  0.3+    001229 897  0.0   1.2-    010314 473  1.6-  0.7+
001217 854  1.1-  0.0     001229 897  0.1+  0.3+    010314 473 (3.8-  2.9-)
001217 704  0.5+  0.1+    001229 897  1.0-  0.7-    010314 473 (4.9-  3.2-)
001217 704  0.7-  0.2+    001229 402  0.5+  0.7+    010318 620  1.0+  0.5+
001217 704  0.6-  0.7+    001229 402  0.2+  0.3+    010318 620  0.4+  0.0
001217 704  0.1-  0.3-    001229 402  1.1+  0.4+    010318 620  1.1+  0.1-
001217 704  0.2-  0.9+    001230 941  0.0   1.1-    010318 620  0.9+  0.1-
001217 704  0.0   0.9+    001230 941 (2.2+  0.2-)   010404 402  1.1-  1.8-
001217 704  0.2+  0.5-    001230 941  0.2+  0.7-    010404 402  1.4-  0.1+
001217 704  0.6-  0.3-    001231 461  0.3-  0.6+    010404 402  1.7-  1.1+
001217 704  0.1-  0.4+    010106 341  0.0   0.0     010412 170  0.8+  0.1+
001217 557  0.0   0.1-    010106 341  0.1-  0.1+    010412 170  1.4+  0.2-
001217 557  0.1+  0.0     010106 341  0.4-  0.1-    010602 897  0.2-  0.2-
001217 557  0.1+  0.2+    010106 941  0.1+  0.5-    010602 897  1.1+  0.4-
001217 611  0.5+  0.1+    010113 118  0.1+  0.3-    010602 897  1.1-  1.0+
001217 611  0.5+  0.2-    010113 118  1.5+  0.4+    010602 349 (2.6-  2.2-)
001217 611  0.3+  0.8+    010113 118  0.0   0.2+    010602 349 (3.3-  2.2-)
001219 704  0.7+  0.4+    010114 118  0.2-  0.1+    010616 170  0.9+  0.5+
001219 704  0.7-  0.1+    010114 118  0.4-  0.2-    010622 170 (2.4-  0.5-)
001219 704  0.0   0.7+    010115 372  0.0   0.3-    010622 170  0.8+  0.8-
001219 704  0.3-  0.3-    010116 372  0.1-  0.8+    010622 170  0.1-  0.5-
001220 696  0.4-  0.1-    010120 941 (3.9+  1.0-)   010622 620 (0.3+  2.3+)
001220 046  0.0   0.1-    010121 349 (1.1-  2.1-)   010622 170  0.3-  0.2+
001220 046  1.0+  0.5+    010121 349  0.7-  0.8-    010622 170  0.1+  0.1-
001220 046  0.4-  0.2-    010121 349  1.6-  0.7-    010622 170  0.5-  0.1-
001220 046  0.5+  0.5-    010124 341  0.3-  0.4-    010622 620  1.3+  0.4+
001220 046  0.6+  0.2+    010124 341  0.1-  0.1-    010622 170  0.6-  0.1+
001221 704  0.1-  0.3-    010124 341  0.3-  0.0     010622 620  1.0+  1.3+
001221 704  0.1+  0.2+    010203 170  1.3+  1.9-    010623 165 (0.0   2.2-)
001221 704  0.4+  0.7-    010216 201  0.2-  0.6+    010623 165  0.1-  1.5-
001221 704  0.3+  1.0+    010216 201  0.2-  0.2+    010623 165  0.8-  0.0
001221 704  0.4+  0.6-    010217 473  0.4-  1.4+    010623 165  1.1-  0.4+
001222 341  0.1+  0.3+    010217 473 (2.8+  0.1+)   010624 170  0.1+  0.0
001222 341  0.2+  0.2+    010217 473 (5.5+  2.2-)   010624 170  0.4-  0.2+

Ephemeris:
    C/2000 WM1 (LINEAR)
Date    TT    R. A. (2000) Decl.     Delta      r     Elong.  Phase   m1    m2
2001 06 20    02 59.41   +46 25.1    4.190    3.499    41.9    11.2  15.1  17.5
2001 06 30    03 13.14   +46 55.4    3.993    3.379    46.8    12.7  14.8  17.4
2001 07 10    03 26.86   +47 26.5    3.782    3.257    52.1    14.3  14.5  17.3
2001 07 20    03 40.51   +47 57.9    3.556    3.134    57.7    15.9  14.2  17.1
2001 07 30    03 53.94   +48 29.1    3.319    3.008    63.6    17.6  13.9  16.9
2001 08 09    04 07.01   +48 59.7    3.070    2.880    69.7    19.3  13.5  16.7
2001 08 19    04 19.53   +49 29.4    2.813    2.750    76.0    20.9  13.1  16.5
2001 08 29    04 31.18   +49 57.8    2.548    2.618    82.6    22.5  12.7  16.2
2001 09 08    04 41.60   +50 24.1    2.279    2.483    89.5    23.9  12.2  15.9
2001 09 18    04 50.22   +50 47.4    2.006    2.345    96.6    25.2  11.7  15.5
2001 09 28    04 56.18   +51 05.4    1.733    2.205   104.2    26.1  11.1  15.1
2001 10 08    04 58.21   +51 13.6    1.462    2.062   112.4    26.6  10.5  14.6

